Home   Weather   Township of Washington   Past weeks
Flag for USA

Past Weather in Township of Washington, Indiana, USA — Yesterday and Last 2 Weeks

Now
47 °F

Passing clouds.


Feels Like: 41 °F
Forecast: 56 / 38 °F
Wind: 15 mph from West

Location: Indianapolis International Airport

Current Time: Oct 16, 2019 at 11:51:47 pm

Latest Report: Oct 16, 2019 at 10:54 pm


Visibility: 10 mi

Pressure: 30.03 "Hg

Humidity: 66%

Dew Point: 36 °F

Location of Township of WashingtonLocation

Past Weather in Township of Washington — Graph

°F

Township of Washington Temperature Yesterday

Maximum temperature yesterday: 71 °F (at 2:54 pm)
Minimum temperature yesterday: 42 °F (at 6:54 am)
Average temperature yesterday: 57 °F

High & Low Weather Summary for the Past Weeks

 TemperatureHumidityPressure
High91 °F (Oct 2, 1:54 pm)100% (Oct 10, 3:15 am)30.32 "Hg (Oct 10, 3:15 am)
Low34 °F (Oct 12, 7:54 am)25% (Oct 7, 3:54 pm)29.78 "Hg (Oct 15, 11:16 pm)
Average60 °F68%30.05 "Hg
* Reported Oct 1 9:54 pm — Oct 16 9:54 pm, Township of Washington. Weather by CustomWeather, © 2019

Note: Actual official high and low records may vary slightly from our data, if they occured in-between our weather recording intervals... More about our weather records

Advertising

Township of Washington Weather History for the Previous 24 Hours

Scroll right to see more
 ConditionsComfort  
Time TempWeatherWind HumidityBarometerVisibility
9:54 pm
Wed, Oct 16
47 °FPassing clouds.13 mph66%30.03 "Hg10 mi
8:54 pm48 °FPartly cloudy.15 mph61%30.01 "Hg10 mi
7:54 pm49 °FPartly cloudy.14 mph61%30.00 "Hg10 mi
6:54 pm50 °FBroken clouds.13 mph59%29.98 "Hg10 mi
5:54 pm51 °FPartly sunny.20 mph54%29.97 "Hg10 mi
4:54 pm52 °FMore clouds than sun.18 mph53%29.95 "Hg10 mi
3:54 pm51 °FOvercast.18 mph56%29.94 "Hg10 mi
2:54 pm51 °FOvercast.14 mph56%29.93 "Hg10 mi
1:54 pm50 °FOvercast.21 mph59%29.93 "Hg10 mi
12:54 pm50 °FMostly cloudy.17 mph59%29.92 "Hg10 mi
11:54 am48 °FOvercast.17 mph66%29.91 "Hg10 mi
10:54 am47 °FMostly cloudy.15 mph69%29.89 "Hg10 mi
9:54 am46 °FOvercast.15 mph71%29.88 "Hg10 mi
8:54 am45 °FOvercast.20 mph71%29.85 "Hg10 mi
7:54 am44 °FPassing clouds.18 mph73%29.85 "Hg10 mi
7:40 am43 °FPassing clouds.15 mph76%29.85 "Hg10 mi
6:54 am44 °FPassing clouds.17 mph79%29.83 "Hg10 mi
5:54 am45 °FPassing clouds.18 mph76%29.82 "Hg10 mi
4:54 am46 °FPassing clouds.12 mph71%29.82 "Hg10 mi
3:54 am49 °FPassing clouds.13 mph66%29.83 "Hg10 mi
2:54 am52 °FMostly cloudy.16 mph64%29.82 "Hg10 mi
1:54 am53 °FOvercast.20 mph64%29.81 "Hg10 mi
12:54 am54 °FMostly cloudy.22 mph74%29.81 "Hg10 mi
12:28 am55 °FMostly cloudy.20 mph77%29.80 "Hg10 mi
12:18 am56 °FLight rain. Overcast.24 mph77%29.80 "Hg10 mi
12:02 am62 °FMostly cloudy.8 mph93%29.78 "Hg10 mi
11:16 pm
Tue, Oct 15
61 °FOvercast.13 mph97%29.78 "Hg10 mi
Weather by CustomWeather, © 2019

See weather overview